Find STEP M2

NORAD ID: 23105 Int'l Des: 1994-029 Owner: STP Country: US operational
LEOCIRCULARPOLAR

实时位置

正在加载3D地球...

关于 STEP M2

正在加载描述...

即将过境

Passes for default location (London). Set your location on the main map for personalized predictions.

高度历史

Loading altitude history...

两行轨道根数

1 23105U 94029A 26120.71718854 .00003050 00000-0 28997-3 0 9993
2 23105 81.9398 222.3083 0083434 55.9543 304.9559 14.90502971712816
Epoch: Apr 30, 2026 • Age: 18 hours

当前状态

高度 569.0 km
速度 7.61 km/s
星下点 77.35°N, 27.37°W
发射日期 May 19, 1994
运行时间 31.9 years
类型 other

技术详情

分类 Payload
质量 180.00 kg
干质量 180.00 kg
总质量 180.00 kg
长度 2.00 m
直径 1.00 m
跨度 3.00 m
形状 Box + 2 Pan
制造商 TRWC/CTA
平台类型 LEOStar T-200
阶段状态 In Orbit
所有者/国家 STP/US

Most Searched